User: anonymous   Login
Location: Unspecified
(0.0000°N, 0.0000°E)
Time: 13:24:40
(UTC+02:00)
Language:

H-2A R/B - Orbit

View from above orbital plane
View from above orbital plane
View from above satellite
View from above satellite

Ground track
Ground track

The orbit data is extracted from the following two-line orbital elements,

1 26899U 01038B   15144.00098020  .00005051  00000-0  15231-2 0  9995
2 26899 028.4088 011.0436 7142254 049.6502 013.6202 02.45421644117861
Epoch (UTC): 24 May 2015 00:01:24
Eccentricity: 0.7142254
inclination: 28.4088°
perigee height: 256 km
apogee height: 33419 km
right ascension of ascending node: 11.0436°
argument of perigee: 49.6502°
revolutions per day: 2.45421644
mean anomaly at epoch: 13.6202°
orbit number at epoch: 11786

The dashed part of the orbit path shows where the satellite is in the earth's shadow,  

DLR